sat.trackr.live / text

‹ back to catalog

ONEWEB-0131

NORAD 47277 · 2020-100V

PAYLOAD ACTIVE UNKNOWN

§ Identity

Operator
Country
UK
Launch date
2020-12-18
Launch site
VOSTO
Launch vehicle
Mass (kg)
RCS (m²)

Purposes: comms

External: N2YO · Heavens-Above · Gunter

§ Orbital elements

Epoch: 2026-09-19T11:48:17.516160Z

Period
109.72 min
Inclination
87.8973°
Eccentricity
0.0001898
Mean motion
13.12442650 rev/d
Perigee alt
1,212.3 km
Apogee alt
1,215.2 km
Semi-major
7,591.9 km
B*
1.2253e-3
RAAN
331.9424°
Arg perigee
94.7197°
Mean anomaly
265.4148°
Rev number
27,705

§ Raw data

ONEWEB-01311 47277U 20100V   26262.49186940  .00000454  00000+0  12253-2 0  99962 47277  87.8973 331.9424 0001898  94.7197 265.4148 13.12442650277059

JSON: /api/v1/satellites/47277 · /tle

For live sub-satellite position, see the globe view (requires WebGL).

§ Visibility from observer

Set your observer location to see the next 7 days of passes ≥ 10°. The values pass through the URL so the page stays shareable.

No JS? Fill the form by hand. The geolocation button needs JavaScript.